sat.trackr.live / text

‹ back to catalog

2023-091AS

NORAD 57206 · 2023-091AS

PAYLOAD ACTIVE UNKNOWN

§ Identity

Operator
Country
CIS
Launch date
2023-06-27
Launch site
VOSTO
Launch vehicle
Mass (kg)
RCS (m²)

External: N2YO · Heavens-Above · Gunter

§ Orbital elements

Epoch: 2026-09-21T20:20:32.832672Z

Period
90.61 min
Inclination
97.4895°
Eccentricity
0.0003516
Mean motion
15.89262164 rev/d
Perigee alt
302.0 km
Apogee alt
306.7 km
Semi-major
6,682.5 km
B*
9.8265e-4
RAAN
352.1428°
Arg perigee
265.2618°
Mean anomaly
94.8252°
Rev number
18,059

§ Raw data

2023-091AS1 57206U 23091AS  26264.84760223  .00280992  30742-4  98265-3 0  99902 57206  97.4895 352.1428 0003516 265.2618  94.8252 15.89262164180591

JSON: /api/v1/satellites/57206 · /tle

For live sub-satellite position, see the globe view (requires WebGL).

§ Visibility from observer

Set your observer location to see the next 7 days of passes ≥ 10°. The values pass through the URL so the page stays shareable.

No JS? Fill the form by hand. The geolocation button needs JavaScript.

§ Radio — SatNOGS DB

ModeDescriptionDownlinkUplink
AFSK Mode U - AFSK 1145 TLM 437.050 MHz
SSTV Mode U - SSTV 437.050 MHz
AFSK Possible Mode U 435.800 MHz

3 transmitters · refreshed weekly from db.satnogs.org